Probability
0 0 0 0 0 0 0 0 0 0 13 6 6 13 10 13 10 6 3 10 13 23 26 35 29 35 35 42 42 42 45 42 45 45 45 42 45 45 42 42 39 42 42 39
0 0 0 0 0 0 0 0 0 3 6 6 6 10 10 16 16 10 3 6 10 16 29 32 35 32 35 35 42 42 45 42 42 39 42 48 48 45 45 45 42 45 42 39
3 0 0 0 0 0 0 6 6 6 6 3 10 10 10 10 16 13 6 6 13 16 32 32 32 39 39 42 32 39 35 32 32 39 35 42 39 39 45 45 39 45 45 42
3 3 0 0 0 0 3 3 6 6 6 10 10 13 13 10 10 13 3 13 13 13 29 29 29 35 32 35 35 29 29 26 26 26 29 32 42 42 39 39 42 42 39 35
3 0 3 0 0 0 0 3 6 6 6 10 13 13 16 13 13 10 3 10 19 19 16 26 26 29 29 29 32 29 23 26 23 23 23 26 29 39 35 39 42 42 35 32
3 0 0 0 0 0 0 3 0 3 6 10 13 13 13 16 13 13 10 16 23 19 19 23 26 26 26 26 29 26 19 23 19 19 19 23 29 29 29 39 39 35 32 32
0 0 0 0 0 0 0 3 3 3 10 13 13 13 13 13 13 10 10 10 16 19 19 19 26 23 23 23 26 26 23 19 19 19 19 19 19 35 26 26 29 29 29 29
0 0 0 0 0 3 6 3 10 13 13 16 16 16 13 13 6 10 6 10 13 13 13 19 23 23 23 23 23 23 23 19 19 19 19 19 26 26 23 29 29 26 26 29
0 3 6 6 6 6 6 6 10 10 16 16 13 13 13 13 6 6 6 10 13 13 16 23 19 19 23 26 23 23 23 19 23 19 23 19 16 16 19 16 19 23 26 29
0 0 0 0 3 3 3 6 10 10 13 13 13 13 13 10 10 6 6 6 16 16 16 19 16 19 23 23 23 23 23 19 19 19 16 16 19 16 16 16 19 19 19 23
0 3 3 3 3 6 6 6 6 6 6 6 13 13 10 10 10 10 10 10 13 16 16 16 16 16 19 23 23 23 16 16 13 13 16 16 16 16 16 16 16 19 19 19
3 3 3 3 3 3 6 6 10 6 3 6 10 6 10 10 10 10 10 10 10 13 16 10 10 13 13 13 19 16 16 16 13 13 10 13 13 13 3 6 0 3 6 6
3 0 0 0 0 6 6 3 6 6 6 6 6 6 6 6 6 3 6 13 13 10 10 6 6 6 6 6 13 13 13 16 13 13 13 13 13 13 6 3 0 0 0 0
0 0 0 0 3 3 3 3 3 3 6 3 3 6 6 6 6 3 10 13 10 6 3 3 3 3 6 6 6 6 10 6 10 13 13 13 13 13 10 6 3 3 0 0
0 0 0 0 3 3 3 3 3 0 0 0 0 0 3 3 3 3 6 6 6 3 3 3 3 3 3 3 6 6 6 6 10 10 10 16 16 13 6 6 6 3 3 0
0 0 0 3 3 3 3 0 0 0 0 3 3 3 3 3 3 3 3 3 3 3 3 3 6 6 3 3 3 6 10 6 6 6 6 13 13 10 3 3 3 3 6 3
0 3 3 3 3 3 0 0 0 0 0 3 3 3 0 3 3 3 3 3 6 6 10 6 6 6 6 6 3 3 6 6 3 6 6 6 10 10 10 6 3 3 3 3
0 0 3 0 0 0 0 0 0 0 3 3 0 0 0 3 3 3 3 6 6 6 3 6 6 6 6 3 3 3 3 3 3 3 3 6 6 6 10 6 6 6 6 3
0 0 0 0 0 0 0 0 0 0 3 3 3 3 3 0 3 3 3 3 3 0 0 6 3 3 3 3 3 3 3 3 3 3 0 0 3 6 6 6 6 6 6 6
0 0 0 0 0 0 0 0 0 0 0 0 3 3 3 3 3 3 3 3 3 3 3 3 6 3 3 3 3 3 3 0 3 0 3 3 3 3 3 3 3 3 6 6
0 0 0 0 0 0 0 0 0 0 0 0 3 3 3 6 3 3 3 0 3 3 3 0 0 3 3 3 0 3 0 0 3 3 3 3 3 3 3 3 3 3 3 3
0 0 0 0 0 0 0 0 0 0 0 0 0 3 6 6 6 6 6 3 0 0 0 0 0 0 3 3 3 3 0 0 3 3 3 3 3 3 3 3 3 3 3 3
0 0 0 0 0 0 0 0 0 0 0 0 0 6 3 6 3 3 3 3 0 0 0 0 0 0 0 0 3 0 0 0 0 0 3 3 3 3 3 3 3 3 3 3
0 0 0 0 0 0 0 0 0 0 0 3 3 6 6 6 6 3 3 0 0 0 0 0 0 0 0 0 3 0 0 0 0 0 0 3 3 3 3 3 3 3 3 3
0 0 0 0 0 0 0 0 3 3 0 0 0 3 3 3 3 0 3 0 0 0 0 0 0 0 0 0 3 0 0 0 0 0 0 3 3 3 3 3 3 3 3 3
3 3 3 3 3 0 0 0 0 0 0 0 0 0 0 0 0 0 3 3 0 0 0 0 0 0 0 0 0 0 0 0 0 0 3 3 3 3 3 3 3 3 3 3
3 3 3 0 3 0 0 0 0 0 0 0 0 0 0 0 0 0 0 0 0 0 0 0 0 0 0 0 0 3 0 0 0 0 3 3 3 3 3 3 3 3 0 0
Height
5770 5771 5771 5772 5773 5774 5775 5775 5776 5776 5776 5775 5776 5775 5775 5776 5778 5778 5779 5780 5781 5781 5783 5787 5790 5792 5793 5796 5797 5799 5801 5802 5803 5804 5804 5805 5805 5806 5806 5806 5805 5805 5805 5804
5763 5765 5765 5765 5766 5767 5768 5768 5768 5768 5767 5767 5767 5767 5767 5768 5769 5770 5770 5771 5773 5774 5776 5779 5782 5784 5785 5787 5789 5791 5793 5794 5795 5796 5797 5797 5798 5798 5799 5798 5798 5798 5798 5797
5757 5758 5758 5759 5760 5761 5761 5761 5761 5760 5760 5759 5759 5759 5759 5760 5762 5762 5763 5764 5766 5767 5769 5773 5775 5776 5777 5779 5781 5783 5785 5786 5787 5788 5789 5790 5790 5791 5791 5791 5791 5790 5790 5790
5751 5752 5752 5754 5752 5752 5752 5751 5751 5752 5751 5752 5752 5752 5752 5753 5754 5755 5756 5757 5759 5761 5763 5766 5768 5769 5769 5771 5773 5775 5776 5778 5779 5780 5781 5782 5782 5783 5783 5783 5783 5783 5783 5783
5744 5744 5745 5745 5745 5745 5744 5744 5744 5744 5744 5743 5744 5745 5745 5746 5747 5748 5749 5751 5752 5754 5757 5758 5760 5762 5762 5764 5766 5767 5768 5769 5771 5772 5773 5774 5775 5775 5775 5776 5776 5776 5776 5776
5738 5739 5738 5738 5738 5738 5738 5736 5735 5736 5736 5736 5736 5737 5738 5738 5739 5741 5743 5745 5746 5748 5749 5751 5752 5754 5756 5757 5758 5759 5761 5762 5763 5764 5765 5766 5767 5767 5768 5768 5768 5768 5768 5768
5732 5731 5731 5731 5731 5731 5732 5730 5728 5727 5728 5729 5729 5730 5731 5732 5732 5734 5735 5737 5739 5741 5742 5744 5745 5747 5749 5749 5751 5752 5753 5755 5756 5757 5757 5758 5759 5760 5760 5760 5760 5760 5760 5760
5726 5725 5727 5725 5725 5725 5724 5723 5722 5721 5722 5722 5722 5722 5723 5724 5725 5727 5728 5730 5732 5733 5735 5737 5738 5740 5741 5743 5744 5745 5746 5748 5748 5749 5750 5751 5751 5752 5752 5752 5753 5753 5752 5752
5721 5722 5720 5718 5718 5718 5717 5716 5715 5715 5715 5715 5715 5715 5716 5717 5718 5719 5721 5723 5724 5726 5728 5730 5731 5733 5734 5735 5736 5737 5739 5740 5741 5742 5742 5743 5744 5744 5745 5745 5745 5745 5745 5745
5716 5715 5714 5714 5713 5712 5711 5710 5710 5709 5709 5708 5708 5709 5709 5709 5710 5712 5714 5716 5717 5719 5721 5723 5724 5726 5727 5728 5729 5730 5732 5733 5734 5734 5735 5735 5736 5737 5737 5738 5738 5738 5738 5738
5711 5710 5709 5708 5707 5706 5705 5704 5703 5703 5702 5702 5702 5702 5703 5703 5704 5706 5707 5709 5711 5713 5714 5716 5717 5718 5719 5721 5722 5723 5724 5725 5726 5727 5728 5728 5729 5729 5730 5731 5730 5730 5730 5730
5706 5705 5704 5703 5701 5700 5699 5698 5697 5697 5697 5696 5695 5696 5697 5698 5699 5699 5701 5702 5704 5705 5707 5709 5710 5711 5712 5713 5714 5715 5716 5717 5718 5719 5720 5720 5721 5722 5722 5723 5723 5722 5722 5722
5700 5699 5698 5697 5696 5695 5694 5693 5692 5691 5691 5690 5690 5690 5690 5691 5692 5693 5694 5696 5697 5698 5700 5701 5702 5703 5704 5705 5706 5706 5707 5708 5709 5710 5711 5712 5713 5713 5714 5715 5714 5714 5714 5713
5695 5694 5693 5692 5691 5689 5688 5687 5686 5686 5685 5684 5684 5684 5684 5685 5686 5687 5688 5689 5691 5692 5693 5694 5694 5695 5696 5696 5697 5698 5699 5700 5701 5702 5703 5703 5704 5705 5705 5706 5706 5706 5705 5705
5691 5689 5688 5687 5686 5685 5684 5683 5682 5681 5680 5679 5678 5678 5678 5679 5680 5681 5682 5683 5684 5685 5685 5686 5687 5687 5688 5688 5689 5689 5690 5691 5692 5693 5694 5694 5695 5696 5697 5697 5697 5697 5697 5697
5686 5684 5683 5682 5681 5680 5679 5679 5678 5677 5676 5675 5674 5673 5674 5674 5675 5675 5676 5677 5677 5678 5678 5679 5679 5679 5680 5680 5679 5680 5681 5682 5683 5684 5685 5686 5687 5687 5688 5688 5689 5689 5688 5688
5681 5680 5679 5678 5677 5676 5675 5674 5673 5673 5672 5671 5670 5670 5670 5669 5669 5669 5670 5670 5671 5671 5671 5672 5672 5672 5672 5671 5671 5672 5673 5674 5675 5676 5677 5677 5678 5679 5679 5680 5680 5680 5680 5679
5676 5676 5675 5674 5673 5672 5671 5670 5669 5669 5668 5667 5666 5666 5665 5664 5664 5664 5664 5664 5665 5665 5664 5664 5664 5663 5663 5663 5663 5663 5664 5665 5666 5667 5668 5669 5669 5670 5670 5671 5671 5671 5671 5671
5672 5671 5670 5669 5669 5668 5667 5666 5665 5665 5664 5663 5662 5661 5660 5660 5660 5659 5659 5659 5658 5658 5658 5657 5656 5655 5655 5655 5655 5655 5655 5656 5657 5658 5659 5660 5661 5661 5662 5662 5663 5663 5663 5663
5667 5666 5665 5665 5664 5663 5663 5662 5661 5661 5660 5659 5658 5657 5656 5655 5654 5654 5654 5653 5652 5651 5650 5649 5648 5648 5647 5647 5647 5647 5648 5648 5649 5650 5651 5652 5653 5653 5654 5654 5654 5654 5654 5654
5663 5662 5661 5660 5659 5658 5658 5657 5657 5656 5655 5654 5653 5652 5651 5650 5649 5648 5648 5647 5646 5644 5643 5642 5641 5640 5640 5640 5640 5640 5641 5641 5641 5642 5643 5644 5645 5646 5646 5646 5647 5647 5647 5646
5659 5658 5657 5656 5655 5654 5653 5653 5652 5651 5650 5649 5648 5647 5646 5645 5644 5643 5642 5641 5640 5638 5637 5636 5634 5633 5633 5633 5633 5634 5634 5634 5634 5635 5636 5637 5637 5638 5639 5639 5639 5639 5639 5638
5655 5654 5653 5652 5651 5650 5649 5648 5647 5646 5645 5644 5643 5642 5641 5639 5638 5637 5636 5635 5634 5632 5631 5630 5628 5627 5627 5627 5626 5627 5627 5627 5628 5628 5629 5630 5630 5630 5631 5631 5631 5631 5631 5630
5651 5650 5649 5648 5647 5646 5644 5643 5643 5641 5640 5639 5638 5636 5635 5634 5632 5631 5630 5629 5628 5626 5625 5624 5623 5622 5622 5621 5621 5621 5621 5621 5622 5622 5622 5622 5622 5623 5623 5623 5623 5623 5622 5622
5646 5645 5645 5644 5642 5641 5640 5639 5638 5637 5635 5634 5633 5631 5630 5628 5627 5625 5624 5623 5622 5621 5620 5618 5618 5617 5616 5616 5616 5615 5615 5615 5615 5615 5615 5615 5616 5616 5615 5615 5615 5615 5614 5614
5642 5641 5640 5639 5638 5637 5636 5634 5633 5632 5631 5629 5628 5626 5625 5623 5622 5620 5619 5618 5617 5616 5615 5614 5613 5612 5611 5611 5610 5610 5609 5609 5609 5609 5609 5609 5609 5608 5608 5608 5607 5607 5606 5606
5637 5636 5635 5634 5633 5632 5631 5630 5629 5628 5626 5625 5624 5622 5620 5619 5618 5616 5615 5614 5612 5611 5610 5609 5608 5607 5606 5605 5605 5604 5603 5603 5603 5603 5602 5602 5602 5601 5601 5600 5600 5599 5599 5598
Wind_Speed
23 22 21 23 24 25 25 26 28 29 30 32 31 30 30 30 30 30 30 31 30 31 31 30 31 30 30 30 30 30 30 29 29 28 27 26 26 27 27 27 27 27 26 26
21 22 20 23 23 24 25 26 27 29 31 30 30 30 30 30 30 30 30 30 31 32 31 29 30 30 30 30 30 30 29 30 30 29 28 27 27 28 28 28 27 27 27 26
21 21 22 24 23 23 25 26 26 28 29 30 30 31 32 31 30 29 31 31 30 31 31 30 30 28 28 29 29 30 30 30 30 30 29 29 29 28 28 28 27 27 26 26
20 20 23 23 22 24 26 28 29 30 30 31 32 32 32 32 30 29 29 29 30 30 30 30 30 30 30 29 29 29 29 30 29 28 28 28 28 28 28 28 28 27 26 26
21 21 22 23 24 25 27 29 29 30 30 31 32 31 31 31 30 29 29 29 29 29 29 29 30 29 29 29 29 29 29 29 28 27 27 27 27 27 28 28 28 28 27 27
21 21 22 23 22 23 25 27 28 29 30 30 31 31 31 31 30 30 29 30 30 30 30 30 30 29 28 28 28 28 27 27 27 27 27 27 27 27 27 27 28 28 27 26
19 20 21 22 22 21 22 25 26 27 28 29 29 30 31 31 30 30 29 30 29 29 29 29 29 28 28 28 28 27 25 25 25 26 26 26 26 27 27 27 27 27 26 26
19 20 21 22 22 22 23 24 25 25 25 26 28 28 29 30 29 28 28 29 28 28 27 28 28 28 27 27 27 26 26 25 24 25 25 26 26 27 27 27 26 26 26 26
19 20 21 21 22 23 24 24 24 25 25 26 27 27 27 28 27 28 28 27 26 26 26 26 27 27 27 26 25 25 25 26 25 26 26 26 26 26 27 27 26 26 27 26
21 21 21 20 22 22 23 24 25 25 25 25 25 23 23 24 25 25 25 25 25 25 26 26 26 26 26 26 25 25 26 26 26 26 26 26 25 25 26 27 26 26 26 26
20 20 21 21 22 22 22 23 23 23 23 22 22 21 21 20 20 22 24 25 25 25 25 25 25 25 26 27 27 27 27 27 27 27 27 26 25 25 26 27 27 26 26 27
20 21 20 20 20 20 21 21 21 21 21 21 22 21 21 21 20 21 21 23 24 24 24 25 26 26 27 28 28 28 28 28 28 28 27 26 26 26 27 27 27 27 28 28
19 19 19 20 20 21 21 20 21 21 21 20 20 20 20 21 21 20 21 22 23 23 24 25 26 26 27 27 27 28 28 28 28 29 28 28 28 28 28 28 28 28 28 28
18 19 19 19 18 18 18 18 19 20 20 19 19 19 19 20 20 20 21 21 22 23 24 25 25 26 26 26 27 28 28 29 29 29 29 28 28 28 28 28 29 28 28 28
18 18 18 18 18 17 16 16 16 17 18 18 18 18 18 18 19 19 20 21 22 23 24 25 26 27 27 28 27 28 29 29 29 30 29 28 28 28 28 29 28 28 29 29
17 17 17 16 15 16 16 15 15 15 16 16 16 16 15 17 18 19 19 21 22 23 24 25 26 27 27 28 28 29 29 29 29 29 28 28 28 28 29 29 29 29 29 30
17 16 15 15 15 16 15 15 14 14 14 15 14 15 16 17 17 18 19 20 21 22 23 25 26 27 28 28 29 29 30 29 29 29 28 28 29 29 29 30 29 29 30 30
16 16 15 15 15 15 14 15 15 15 16 16 16 16 17 16 17 18 19 19 20 21 23 24 26 26 27 28 29 29 29 29 29 29 29 28 29 29 29 29 28 29 28 28
16 15 15 14 14 15 15 15 15 16 17 17 17 17 17 16 17 17 18 19 21 22 23 24 25 27 27 27 27 27 27 27 27 27 28 28 28 27 27 27 27 27 27 27
15 15 14 14 14 14 14 14 15 16 17 18 18 18 17 17 18 19 19 20 21 22 23 24 24 25 25 25 26 25 25 26 26 27 27 26 26 26 26 26 27 27 27 27
14 14 14 14 15 15 15 14 15 15 16 17 17 17 18 18 18 19 19 19 20 21 22 23 23 24 24 23 23 23 23 23 24 24 24 25 25 25 26 26 27 27 27 27
14 13 13 14 14 15 15 15 16 17 17 16 16 17 18 18 19 19 19 20 20 21 21 20 20 20 21 21 22 23 23 22 22 23 24 24 24 24 24 25 25 26 26 26
13 12 12 13 13 14 15 16 16 17 17 17 17 18 18 18 19 19 19 20 20 20 20 19 19 19 19 20 20 21 21 21 21 22 22 23 23 23 23 24 24 25 25 25
14 13 13 13 13 14 15 16 16 17 17 17 17 17 18 18 19 19 19 19 19 19 18 18 18 18 18 19 19 19 19 20 20 20 21 21 22 22 22 23 23 24 24 24
14 14 15 15 15 15 15 15 15 15 16 16 16 16 17 17 17 17 17 17 16 17 17 17 17 17 17 18 18 19 19 19 20 19 20 20 21 22 22 23 23 24 24 24
14 15 15 15 15 15 15 14 14 14 14 15 15 15 16 16 16 16 16 16 16 16 16 16 16 17 17 18 18 18 18 18 19 18 19 20 21 21 21 21 22 22 22 23
15 15 15 15 15 14 14 13 13 13 13 14 14 15 15 15 15 15 16 16 16 16 16 17 17 18 18 18 18 18 18 18 18 18 19 20 20 20 21 21 22 22 22 22
Wind_Direction
248 249 256 255 255 252 253 252 253 255 256 257 261 262 260 258 258 260 258 257 256 254 254 254 255 255 257 257 258 260 262 264 265 266 268 269 269 269 272 274 276 277 278 279
251 249 254 258 259 256 253 255 256 256 257 257 258 259 261 260 259 259 258 255 254 253 251 254 256 255 256 257 258 260 262 264 265 266 268 268 269 269 271 274 275 277 277 277
257 253 252 255 259 262 260 259 260 258 258 258 259 260 260 259 259 260 256 257 255 253 254 255 255 255 256 258 258 259 261 265 267 266 267 267 267 269 272 273 274 277 279 278
261 256 255 257 256 258 259 258 257 257 258 259 261 261 261 259 258 256 255 255 255 254 252 254 256 257 259 259 260 260 262 264 264 264 266 267 267 268 270 272 273 275 277 277
257 257 260 262 259 257 258 260 261 260 259 261 263 261 260 258 256 255 253 255 255 254 254 255 256 257 259 259 260 260 261 261 262 263 264 266 267 269 270 271 272 273 275 275
257 258 261 264 266 264 263 262 262 263 264 262 262 260 261 258 256 256 254 254 255 255 255 256 257 256 256 258 259 260 261 261 262 263 263 265 267 269 269 270 273 275 275 275
262 261 262 266 267 266 264 266 266 265 266 264 261 260 260 259 259 256 255 255 256 255 254 254 255 256 257 259 260 260 261 262 263 263 263 264 267 269 270 272 274 274 274 275
267 261 263 266 268 268 269 267 265 266 266 264 261 260 258 258 257 255 256 255 256 253 251 252 254 255 256 256 258 259 260 261 262 264 264 265 267 268 270 272 273 272 272 274
267 266 265 267 269 268 267 266 266 267 266 264 263 263 262 260 258 257 256 255 254 253 253 253 254 255 255 255 257 259 261 262 262 263 264 266 267 267 269 271 273 273 273 273
269 270 270 269 270 270 268 267 268 268 267 265 264 263 262 260 257 255 253 252 250 252 253 253 253 253 254 256 258 260 262 264 263 263 265 266 267 268 270 272 272 273 273 274
270 270 272 273 272 270 268 268 267 267 267 265 263 263 264 262 258 252 249 248 250 252 252 253 254 255 257 258 259 261 262 263 262 262 265 265 266 268 270 273 274 274 275 276
273 274 275 274 273 272 271 271 270 269 266 264 263 265 263 262 261 256 252 251 252 252 253 256 257 258 260 260 260 261 262 263 264 261 263 264 265 268 271 273 274 276 277 277
278 279 279 278 278 276 273 272 271 269 268 267 266 265 262 262 262 258 256 255 256 255 256 257 259 260 260 259 259 260 261 261 262 262 263 264 266 268 271 273 274 275 276 276
281 280 279 280 281 280 277 275 273 272 271 270 267 265 264 260 258 258 259 259 258 257 258 260 261 261 263 261 260 261 262 262 262 263 265 265 266 267 269 272 273 275 275 277
284 282 281 280 277 278 279 279 278 275 273 273 272 270 265 260 258 259 260 260 260 259 261 263 262 262 263 263 262 262 263 264 264 264 264 264 266 267 269 271 273 274 274 275
287 286 284 279 275 276 276 276 278 278 277 277 276 273 269 265 263 263 262 261 261 262 263 263 264 264 264 266 264 262 263 264 265 264 264 265 265 267 268 270 271 272 273 274
289 287 284 281 280 279 278 278 278 278 278 277 276 275 277 276 269 266 264 262 262 263 265 265 267 269 268 268 266 264 263 263 263 263 265 265 265 267 269 270 272 272 274 275
288 288 284 281 282 285 283 280 279 277 280 280 276 276 279 278 273 269 267 266 265 266 269 270 270 272 271 271 268 264 261 260 261 261 262 265 266 267 269 270 271 271 273 275
286 286 285 283 282 284 286 281 280 280 283 282 284 285 280 277 276 274 271 270 269 269 271 273 273 273 272 271 269 265 263 261 261 260 260 262 265 266 267 268 270 271 271 272
287 285 283 282 283 283 285 283 281 282 286 284 283 284 282 279 279 279 276 276 275 275 276 276 275 274 272 269 268 266 264 263 261 261 261 261 262 265 267 268 268 270 270 271
290 287 283 281 283 284 282 282 282 284 285 284 284 284 284 284 283 282 279 278 279 281 280 278 277 276 272 269 268 267 268 266 263 261 261 262 263 265 267 269 268 269 271 272
288 284 285 287 286 283 281 281 283 285 284 283 285 287 287 285 283 281 281 280 279 281 283 282 281 278 274 271 270 271 271 271 269 266 264 263 263 265 267 269 270 270 271 274
285 284 287 288 287 286 284 283 286 288 288 288 287 288 289 287 285 283 283 283 282 283 283 284 283 279 275 273 273 272 272 272 271 270 268 267 265 265 266 269 271 271 271 273
282 282 286 290 292 293 291 288 287 288 290 291 292 291 291 290 288 285 284 284 283 284 284 283 282 281 279 276 275 275 275 274 274 274 273 272 271 271 271 270 271 272 272 273
281 280 283 287 291 294 295 294 291 290 291 293 294 295 296 296 293 290 288 287 287 288 289 287 285 284 281 279 277 277 276 275 275 275 274 273 274 274 274 274 274 274 274 274
282 283 287 289 291 292 295 296 296 297 299 300 300 300 299 298 297 294 292 290 290 290 290 288 287 288 287 285 282 282 281 278 277 277 276 276 276 277 277 276 276 277 278 278
283 287 291 293 293 293 293 294 296 299 301 303 305 304 302 298 296 294 293 293 293 292 290 287 286 286 285 284 280 279 279 278 277 277 277 278 278 278 278 278 279 279 279 280